Location: Bergen
(60.3910°N, 5.3250°E)
Time: 20:34:29
(UTC+02:00)

ISS - Pass Details

Date: 31 March 2019
Orbit: 408 x 410 km, 51.6° (Epoch: 26 April)

Event Time Altitude Azimuth Distance (km) Brightness Sun altitude
Rises 20:58:08 0° 248° (WSW) 2,339 0.9 -5.4°
Reaches altitude 10° 21:00:38 10° 229° (SW) 1,476 -0.6 -5.7°
Maximum altitude 21:02:59 18° 183° (S) 1,076 -1.8 -6.0°
Drops below altitude 10° 21:05:21 10° 138° (SE) 1,475 -1.5 -6.2°
Enters shadow 21:06:03 - 130° (SE) 1,694 -1.3 -6.3°
